CW0346 Weather Reports


Display with metric or nautical units.
time (UTC)temp
F
wind
direction
speed
MPH
gust
MPH
rain 1hr
in
rain 24hr
in
rain mn
in
humidity
%
barometer
mb
20260906220021 84 113 4.0 10.0 0.00 0.00 0.00 32 1021.4
20260906215021 86 135 2.0 7.0 0.00 0.00 0.00 31 1021.4
20260906214022 85 135 1.0 4.0 0.00 0.00 0.00 31 1021.4
20260906213021 83 113 3.0 7.0 0.00 0.00 0.00 32 1021.5
20260906212020 84 113 3.0 7.0 0.00 0.00 0.00 31 1021.4
20260906211022 83 135 4.0 9.0 0.00 0.00 0.00 30 1021.4
20260906210023 83 135 3.0 7.0 0.00 0.00 0.00 32 1021.5
20260906205041 85 135 3.0 6.0 0.00 0.00 0.00 32 1021.9
20260906204021 85 113 4.0 8.0 0.00 0.00 0.00 31 1022.0
20260906203020 86 203 3.0 7.0 0.00 0.00 0.00 31 1022.4
20260906202021 85 135 4.0 9.0 0.00 0.00 0.00 29 1022.1
20260906201021 86 135 4.0 9.0 0.00 0.00 0.00 28 1022.3
20260906200022 85 135 4.0 11.0 0.00 0.00 0.00 31 1022.6
20260906195021 85 113 3.0 8.0 0.00 0.00 0.00 33 1022.5
20260906194021 84 203 3.0 7.0 0.00 0.00 0.00 34 1022.7
20260906193020 84 113 5.0 14.0 0.00 0.00 0.00 35 1023.0
20260906192021 83 135 5.0 11.0 0.00 0.00 0.00 33 1023.0
20260906191021 83 113 3.0 8.0 0.00 0.00 0.00 36 1023.4
20260906190020 82 135 5.0 11.0 0.00 0.00 0.00 37 1023.3
20260906185021 83 135 4.0 9.0 0.00 0.00 0.00 36 1023.6
20260906184021 83 113 3.0 8.0 0.00 0.00 0.00 38 1023.8
20260906183021 82 113 3.0 7.0 0.00 0.00 0.00 39 1024.0
20260906182021 82 113 1.0 4.0 0.00 0.00 0.00 40 1024.1
20260906181020 80 113 4.0 9.0 0.00 0.00 0.00 41 1023.7
20260906180021 82 113 4.0 9.0 0.00 0.00 0.00 38 1024.2
20260906175041 80 113 4.0 9.0 0.00 0.00 0.00 40 1024.0
20260906174021 81 90 5.0 11.0 0.00 0.00 0.00 40 1024.1
20260906173040 81 90 4.0 10.0 0.00 0.00 0.00 39 1024.1
20260906172020 80 90 3.0 8.0 0.00 0.00 0.00 40 1024.2
20260906171021 79 90 3.0 9.0 0.00 0.00 0.00 42 1024.4
20260906170021 78 90 3.0 7.0 0.00 0.00 0.00 42 1024.4
20260906165121 78 135 3.0 8.0 0.00 0.00 0.00 44 1024.5
20260906164021 77 113 3.0 7.0 0.00 0.00 0.00 44 1024.5
20260906163020 77 90 2.0 5.0 0.00 0.00 0.00 45 1025.0
20260906162020 76 113 2.0 7.0 0.00 0.00 0.00 43 1025.0
20260906161020 77 113 3.0 6.0 0.00 0.00 0.00 43 1025.1
20260906160020 76 113 2.0 4.0 0.00 0.00 0.00 42 1025.6
20260906155020 76 113 3.0 7.0 0.00 0.00 0.00 40 1025.4
20260906154040 74 90 1.0 2.0 0.00 0.00 0.00 41 1025.1
20260906153021 73 113 1.0 4.0 0.00 0.00 0.00 45 1024.9
20260906152039 72 113 2.0 7.0 0.00 0.00 0.00 42 1024.9
20260906151039 72 90 2.0 4.0 0.00 0.00 0.00 42 1025.0
20260906150020 71 113 1.0 4.0 0.00 0.00 0.00 44 1024.5
20260906145020 69 0.0 1.0 0.00 0.00 0.00 46 1024.0
20260906144019 67 0.0 0.0 0.00 0.00 0.00 46 1023.4
20260906143020 68 0.0 0.0 0.00 0.00 0.00 45 1023.4
20260906142020 68 135 2.0 3.0 0.00 0.00 0.00 45 1023.3
20260906141019 67 90 1.0 3.0 0.00 0.00 0.00 48 1023.4
20260906140020 65 0.0 1.0 0.00 0.00 0.00 51 1022.3
20260906135019 64 0.0 1.0 0.00 0.00 0.00 51 1022.3
20260906134019 62 0.0 0.0 0.00 0.00 0.00 55 1021.9
20260906133020 61 0.0 0.0 0.00 0.00 0.00 58 1021.9
20260906132021 59 0.0 1.0 0.00 0.00 0.00 60 1021.3
20260906131019 59 225 1.0 2.0 0.00 0.00 0.00 61 1021.1
20260906130021 59 0.0 1.0 0.00 0.00 0.00 64 1021.1
20260906125020 59 0.0 1.0 0.00 0.00 0.00 64 1021.1
20260906124019 59 0.0 1.0 0.00 0.00 0.00 62 1020.8
20260906123020 59 225 2.0 2.0 0.00 0.00 0.00 61 1021.1
20260906122020 58 0.0 0.0 0.00 0.00 0.00 64 1021.2
20260906121019 58 0.0 0.0 0.00 0.00 0.00 64 1021.3
20260906120020 59 0.0 0.0 0.00 0.00 0.00 64 1021.2
20260906115039 59 158 1.0 1.0 0.00 0.00 0.00 61 1021.6
20260906114019 59 158 1.0 1.0 0.00 0.00 0.00 63 1021.6
20260906113020 59 0.0 1.0 0.00 0.00 0.00 62 1021.1
20260906112019 59 0.0 1.0 0.00 0.00 0.00 64 1021.1
20260906111019 60 0.0 0.0 0.00 0.00 0.00 62 1021.0
20260906110019 60 0.0 0.0 0.00 0.00 0.00 59 1022.0
20260906105019 60 0.0 0.0 0.00 0.00 0.00 61 1022.1
20260906104021 61 0.0 0.0 0.00 0.00 0.00 60 1022.0
20260906103020 61 0.0 1.0 0.00 0.00 0.00 60 1023.0
20260906102020 61 113 1.0 2.0 0.00 0.00 0.00 55 1022.7
20260906101021 62 113 1.0 2.0 0.00 0.00 0.00 54 1022.6
20260906100019 62 113 1.0 1.0 0.00 0.00 0.00 53 1022.9
20260906095021 62 0.0 0.0 0.00 0.00 0.00 53 1022.7
20260906094020 62 0.0 0.0 0.00 0.00 0.00 54 1022.7
20260906093019 62 0.0 0.0 0.00 0.00 0.00 54 1023.2
20260906092020 63 0.0 0.0 0.00 0.00 0.00 53 1023.0
20260906091040 63 0.0 0.0 0.00 0.00 0.00 52 1023.0
20260906090041 63 0.0 0.0 0.00 0.00 0.00 53 1023.1
20260906085039 63 0.0 0.0 0.00 0.00 0.00 52 1023.1
20260906084022 64 0.0 0.0 0.00 0.00 0.00 51 1023.0
20260906083022 64 0.0 1.0 0.00 0.00 0.00 51 1023.7
20260906082020 65 0.0 1.0 0.00 0.00 0.00 50 1023.7
20260906081020 65 0.0 1.0 0.00 0.00 0.00 50 1023.7
20260906080020 66 0.0 2.0 0.00 0.00 0.00 49 1024.4
20260906075041 66 0.0 1.0 0.00 0.00 0.00 49 1024.5
20260906074019 66 0.0 1.0 0.00 0.00 0.00 49 1024.5
20260906073019 67 68 1.0 2.0 0.00 0.00 0.00 49 1024.6
20260906072022 67 113 1.0 2.0 0.00 0.00 0.00 48 1024.6
20260906071021 67 203 1.0 2.0 0.00 0.00 0.00 48 1024.4
20260906070041 67 0.0 0.0 0.00 0.00 0.00 48 1023.9
20260906065019 67 293 1.0 2.0 0.00 0.00 0.00 48 1024.1
20260906064020 68 248 1.0 3.0 0.00 0.00 0.00 48 1024.6
20260906063020 69 293 1.0 3.0 0.00 0.00 0.00 46 1024.2
20260906062021 68 315 1.0 2.0 0.00 0.00 0.00 46 1024.2
20260906061021 68 338 1.0 2.0 0.00 0.00 0.00 46 1024.3
20260906060022 68 338 2.0 4.0 0.00 0.00 0.00 47 1024.7
20260906055019 69 0.0 2.0 0.00 0.00 0.00 48 1024.2
20260906054021 68 0.0 2.0 0.00 0.00 0.00 49 1024.4
20260906053021 68 203 1.0 2.0 0.00 0.00 0.00 52 1024.4
20260906052102 68 270 1.0 1.0 0.00 0.00 0.00 52 1024.4
20260906051100 68 315 1.0 2.0 0.00 0.00 0.00 54 1024.4
20260906050042 69 315 1.0 3.0 0.00 0.00 0.00 53 1024.1
20260906045020 69 203 2.0 5.0 0.00 0.00 0.00 54 1024.3
20260906044021 70 315 3.0 4.0 0.00 0.00 0.00 53 1024.4
20260906043021 72 293 3.0 6.0 0.00 0.00 0.00 40 1024.8
20260906042042 73 0.0 0.0 0.00 0.00 0.00 36 1024.9
20260906041021 74 0.0 0.0 0.00 0.00 0.00 35 1024.6
20260906040022 74 0.0 1.0 0.00 0.00 0.00 35 1024.0
20260906035022 75 113 2.0 4.0 0.00 0.00 0.00 34 1024.4
20260906034022 77 113 1.0 2.0 0.00 0.00 0.00 32 1024.6
20260906033022 78 248 2.0 9.0 0.00 0.00 0.00 29 1024.1
20260906032101 78 270 4.0 10.0 0.00 0.00 0.00 30 1024.1
20260906031020 78 270 4.0 10.0 0.00 0.00 0.00 30 1024.0
20260906030021 78 270 6.0 13.0 0.00 0.00 0.00 30 1023.6
20260906025021 78 293 7.0 14.0 0.00 0.00 0.00 31 1023.5
20260906024040 78 293 4.0 8.0 0.00 0.00 0.00 30 1023.5
20260906023022 78 270 4.0 9.0 0.00 0.00 0.00 31 1023.4
20260906022020 77 270 5.0 14.0 0.00 0.00 0.00 31 1023.1
20260906021021 77 270 7.0 15.0 0.00 0.00 0.00 32 1023.1
20260906020021 76 270 7.0 13.0 0.00 0.00 0.00 33 1022.8
20260906015042 77 293 8.0 12.0 0.00 0.00 0.00 32 1023.4
20260906014021 77 270 7.0 13.0 0.00 0.00 0.00 32 1023.5
20260906013040 76 270 4.0 9.0 0.00 0.00 0.00 33 1022.4
20260906012020 76 225 1.0 4.0 0.00 0.00 0.00 33 1022.4
20260906011041 77 270 3.0 7.0 0.00 0.00 0.00 32 1022.4
20260906010022 77 270 7.0 11.0 0.00 0.00 0.00 33 1022.6
20260906005020 78 293 9.0 16.0 0.00 0.00 0.00 33 1022.9
20260906004019 78 270 6.0 14.0 0.00 0.00 0.00 33 1023.2
20260906003019 77 270 3.0 7.0 0.00 0.00 0.00 33 1022.7
20260906002021 77 315 4.0 9.0 0.00 0.00 0.00 34 1022.5
20260906001019 80 270 10.0 20.0 0.00 0.00 0.00 29 1023.8
20260906000021 80 203 1.0 4.0 0.00 0.00 0.00 29 1022.0
20260905235040 81 293 2.0 4.0 0.00 0.00 0.00 27 1021.8
20260905234019 81 315 3.0 7.0 0.00 0.00 0.00 26 1021.8
20260905233020 81 293 1.0 2.0 0.00 0.00 0.00 26 1021.4
20260905232020 81 338 2.0 4.0 0.00 0.00 0.00 26 1021.3
20260905231019 80 270 5.0 9.0 0.00 0.00 0.00 28 1021.3
20260905230019 80 293 4.0 8.0 0.00 0.00 0.00 29 1021.1
20260905225020 79 315 8.0 17.0 0.00 0.00 0.00 30 1021.2
20260905224020 81 270 10.0 25.0 0.00 0.00 0.00 28 1021.7
20260905223020 84 158 1.0 7.0 0.00 0.00 0.00 22 1021.9
20260905222019 85 225 1.0 4.0 0.00 0.00 0.00 22 1021.7
20260905221042 85 113 2.0 7.0 0.00 0.00 0.00 21 1021.5